Hourly Data Report for January 24, 2022

TERRACE A
BRITISH COLUMBIA
Current Station Operator: NAVCAN

54°28'07.000" N
128°34'42.000" W
217.30 m
1068134
71951
YXT

Download Data

Hourly Data (January 2022)
Hourly Data Report for January 24, 2022
TIME
LST
Temp Definition
°C
Dew Point Definition
°C
Rel Hum Definition
%
Precip. Amount Definition
mm

Wind Dir Definition
10's deg

Wind Spd Definition
km/h
Visibility Definition
km
Stn Press Definition
kPa
Hmdx Definition


Wind Chill Definition


Weather Definition


00:00 1.3 1.3 100 LegendMM 36 1 0.8 100.33     Fog
01:00 1.2 1.2 100 LegendMM 22 3 0.8 100.31     Fog
02:00 1.3 1.3 100 LegendMM 2 3 0.8 100.35     Fog
03:00 1.5 1.5 100 LegendMM 35 8 0.8 100.37     Fog
04:00 1.4 1.4 100 LegendMM 1 5 0.8 100.34     Drizzle, Fog
05:00 1.2 1.2 100 LegendMM 35 7 0.8 100.33     Drizzle, Fog
06:00 0.9 0.9 100 LegendMM 35 8 0.8 100.34     Drizzle, Fog
07:00 1.5 1.5 100 LegendMM 36 15 1.2 100.30     Drizzle, Fog
08:00 1.1 1.1 100 LegendMM 34 16 4.0 100.26     Fog
09:00 1.1 1.1 100 LegendMM 33 11 4.8 100.24     Fog
10:00 1.3 1.3 100 LegendMM 35 11 6.4 100.25     Fog
11:00 2.0 1.8 98 LegendMM 33 17 8.1 100.24     Fog
12:00 1.8 1.6 99 LegendMM 36 7 8.1 100.25     Fog
13:00 2.6 1.8 94 LegendMM 36 5 12.9 100.18     Cloudy
14:00 2.5 1.8 95 LegendMM 36 3 12.9 100.16     LegendNANA
15:00 3.3 1.4 88 LegendMM 31 9 24.1 100.13     LegendNANA
16:00 2.0 1.5 96 LegendMM 0 1 24.1 100.06     Mostly Cloudy
17:00 1.7 1.5 99 LegendMM 1 5 24.1 100.03     LegendNANA
18:00 0.6 0.3 98 LegendMM 12 3 24.1 100.02     LegendNANA
19:00 -0.2 -0.3 99 LegendMM 15 4 24.1 99.99   -1 Mostly Cloudy
20:00 -1.8 -1.8 100 LegendMM 36 2 1.6 99.97   -3 Fog
21:00 -1.4 -1.4 100 LegendMM 18 4 0.6 99.96   -3 Freezing Fog
22:00 0.3 0.3 100 LegendMM 36 1 1.6 99.94     Fog
23:00 0.4 0.4 100 LegendMM 12 7 1.6 99.92     Fog

Notes on Data Quality.

Legend

  • E = Estimated
  • M = Missing
  • NA = Not Available*
  • [empty] = Indicates an unobserved value
Date modified: